Tracking 29892 objects as of 21-Nov-2024
HD Live streaming from Space Station
objects crossing your sky now

STARLINK-30092

Track STARLINK-30092 now!
10-day predictions
STARLINK-30092 is classified as:


NORAD ID: 57467
Int'l Code: 2023-107L
Perigee: 565.2 km
Apogee: 567.2 km
Inclination: 43.0 °
Period: 95.8 minutes
Semi major axis: 6937 km
RCS: Unknown
Launch date: July 28, 2023
Source: (TBD)
Launch site: AIR FORCE EASTERN TEST RANGE (AFETR)
Your satellite tracking list
Your tracking list is empty




NASA's NSSDC Master Catalog

Two Line Element Set (TLE):
1 57467U 23107L   24325.63157749  .00009947  00000-0  75045-3 0  9993
2 57467  43.0044  34.7910 0001422 278.5258  81.5423 15.02531346 73807
Source of the keplerian elements: AFSPC